Location: Wavehorne
(51.0500°N, 0.8333°E)
Time: 17:23:05
(UTC+00:00)

FALCON 9 DEB - Pass Details

Date: 20 June 2021
Orbit: 363 x 377 km, 53.0° (Epoch: 04 August)

Event Time Altitude Azimuth Distance (km) Brightness Sun altitude
Rises 02:30:53 0° 289° (WNW) 2,273 6.6 -8.3°
Reaches altitude 10° 02:32:59 10° 284° (WNW) 1,415 5.5 -8.1°
Maximum altitude 02:36:04 51° 207° (SSW) 492 3.0 -7.8°
Drops below altitude 10° 02:39:07 10° 130° (SE) 1,401 5.7 -7.5°
Sets 02:41:11 0° 126° (SE) 2,248 6.8 -7.3°
